F/V Le Natif 2 — FKVW — position and weather

sailwx.info

Track history (hours):
 
Tides and Currents Weather Stations Pressure Air Temp Water Temp Dewpoint Dewpoint Depression Visibility Wind Speed Wind Dir Waves Ship Positions

F/V Le Natif 2

Last reported at 2014-Oct-24 11:24 UTC. Time now 2014-Oct-24 21:25 UTC.
Position N 46°42' W 001°56'.

Length 16 m.

Type: Fishing. MMSI: 228131600.

Date/timePositionNaut miles runAvg speedWind from/ knotsBaromVisibWave heightAir tempDewpointWater temp
2014-Oct-24 11:24N 46°42' W 001°56'0 0.0
2014-Oct-24 10:33N 46°42' W 001°56'0 0.0
2014-Oct-24 09:34N 46°42' W 001°56'0 0.0
2014-Oct-24 08:33N 46°42' W 001°56'0 0.0
2014-Oct-24 07:34N 46°42' W 001°56'0 0.0
2014-Oct-24 06:34N 46°42' W 001°56'0 0.0
2014-Oct-24 05:34N 46°42' W 001°56'0 0.0
2014-Oct-24 04:33N 46°42' W 001°56'0 0.0
2014-Oct-24 03:33N 46°42' W 001°56'0 0.0
2014-Oct-24 02:33N 46°42' W 001°56'3 3.1
2014-Oct-24 01:33N 46°39' W 001°59'9 9.0
2014-Oct-24 00:34N 46°32' W 002°07'9 9.3
2014-Oct-23 23:33N 46°25' W 002°16'70 1.7
2014-Oct-22 05:25N 47°24' W 003°11'7 8.3
2014-Oct-22 04:33N 47°21' W 003°02'8 7.9
2014-Oct-22 03:31N 47°18' W 002°50'8 8.1
2014-Oct-22 02:31N 47°20' W 002°38'28 0.7
2014-Oct-20 10:33N 47°25' W 003°19'9 8.5
2014-Oct-20 09:33N 47°22' W 003°07'9 9.3
2014-Oct-20 08:33N 47°19' W 002°54'9 8.8
2014-Oct-20 07:33N 47°19' W 002°41'22 0.8
2014-Oct-19 02:33N 47°06' W 003°06'8 8.5
2014-Oct-19 01:34N 47°01' W 002°56'28 8.2
2014-Oct-18 22:08N 46°47' W 002°21'5 8.3
2014-Oct-18 21:32N 46°45' W 002°14'8 8.5
2014-Oct-18 20:33N 46°42' W 002°03'4 4.2
2014-Oct-18 19:34N 46°42' W 001°56'0 0.0
2014-Oct-18 08:33N 46°42' W 001°56'0 0.0
2014-Oct-17 10:33N 46°42' W 001°56'0 0.0
2014-Oct-17 09:33N 46°42' W 001°56'8 0.4
2014-Oct-16 14:22N 46°43' W 002°08'7 8.5
2014-Oct-16 13:33N 46°40' W 001°59'2 0.4
2014-Oct-16 08:05N 46°42' W 001°56'0 0.0
2014-Oct-15 07:03N 46°42' W 001°56'0 0.0
2014-Oct-15 06:32N 46°42' W 001°56'  
Track history (hours):
 
Tides and Currents Weather Stations Pressure Air Temp Water Temp Dewpoint Dewpoint Depression Visibility Wind Speed Wind Dir Waves Ship Positions

F/V Le Natif 2

Last reported at 2014-Oct-24 11:24 UTC. Time now 2014-Oct-24 21:25 UTC.
Position N 46°42' W 001°56'.

Length 16 m.

Type: Fishing. MMSI: 228131600.

Date/timePositionNaut miles runAvg speedWind from/ knotsBaromVisibWave heightAir tempDewpointWater temp
2014-Oct-24 11:24N 46°42' W 001°56'0 0.0
2014-Oct-24 10:33N 46°42' W 001°56'0 0.0
2014-Oct-24 09:34N 46°42' W 001°56'0 0.0
2014-Oct-24 08:33N 46°42' W 001°56'0 0.0
2014-Oct-24 07:34N 46°42' W 001°56'0 0.0
2014-Oct-24 06:34N 46°42' W 001°56'0 0.0
2014-Oct-24 05:34N 46°42' W 001°56'0 0.0
2014-Oct-24 04:33N 46°42' W 001°56'0 0.0
2014-Oct-24 03:33N 46°42' W 001°56'0 0.0
2014-Oct-24 02:33N 46°42' W 001°56'3 3.1
2014-Oct-24 01:33N 46°39' W 001°59'9 9.0
2014-Oct-24 00:34N 46°32' W 002°07'9 9.3
2014-Oct-23 23:33N 46°25' W 002°16'70 1.7
2014-Oct-22 05:25N 47°24' W 003°11'7 8.3
2014-Oct-22 04:33N 47°21' W 003°02'8 7.9
2014-Oct-22 03:31N 47°18' W 002°50'8 8.1
2014-Oct-22 02:31N 47°20' W 002°38'28 0.7
2014-Oct-20 10:33N 47°25' W 003°19'9 8.5
2014-Oct-20 09:33N 47°22' W 003°07'9 9.3
2014-Oct-20 08:33N 47°19' W 002°54'9 8.8
2014-Oct-20 07:33N 47°19' W 002°41'22 0.8
2014-Oct-19 02:33N 47°06' W 003°06'8 8.5
2014-Oct-19 01:34N 47°01' W 002°56'28 8.2
2014-Oct-18 22:08N 46°47' W 002°21'5 8.3
2014-Oct-18 21:32N 46°45' W 002°14'8 8.5
2014-Oct-18 20:33N 46°42' W 002°03'4 4.2
2014-Oct-18 19:34N 46°42' W 001°56'0 0.0
2014-Oct-18 08:33N 46°42' W 001°56'0 0.0
2014-Oct-17 10:33N 46°42' W 001°56'0 0.0
2014-Oct-17 09:33N 46°42' W 001°56'8 0.4
2014-Oct-16 14:22N 46°43' W 002°08'7 8.5
2014-Oct-16 13:33N 46°40' W 001°59'2 0.4
2014-Oct-16 08:05N 46°42' W 001°56'0 0.0
2014-Oct-15 07:03N 46°42' W 001°56'0 0.0
2014-Oct-15 06:32N 46°42' W 001°56'  

Dump ship's entire track history